Showing default

S-NET B, 43187

Orbit data source: Space-Track

S-NET B, 43187 is a payload satellite owned by TUB (DE) in SSO that was launched on Thu, 01 Feb 2018 UTC via a SOYUZ-2-1A launch vehicle from the Vostochny Cosmodrome (VOSTO). Payload-class satellites include a variety of spacecraft equipped with specific instruments for various scientific and technological missions. These include communications satellites like Starlink; space stations such as the ISS; scientific satellites like the Hubble; Earth observation satellites from companies like Planet Labs, Umbra, and HawkEye 360; GPS; miniature CubeSats for education and research; and military/defense satellites.

Loading next visibility...
Identifier
43187, 2018-014H
Orbit
SSO
Country
Flag of DEDE / GER
Related business
Manufacturer
TUB
Mission
Operational Amateur Com/Tech
Bus & Motor
TUBIX10, Unknown motor
Mass
8 kg wet, 8 kg dry
Launch date (UTC)
2018-02-01 (8 years ago)
Launch vehicle
SOYUZ-2-1A
Launch site
Vostochny Cosmodrome (VOSTO)
Object type
Payload
Rocket body
Debris
Shape & HBR
Box, 1.0 m
Radar Cross Section
0.086 m², Medium (>0.1 m² and < 1m²)

Expand to show TLE details & history
Last TLE update: 17 hours ago

TLE from 17 hours ago
0 S-NET B
1 43187U 18014H   25312.52677895  .00010431  00000-0  58198-3 0  9992
2 43187  97.5487 213.8854 0011351  61.8865 298.3512 15.13690201425347
Epoch: 2025-11-08T12:38Z
TLE epoch observation values (Epoch: 2025-11-08T12:38:33.701Z)
Latitude
-0.00003°
Longitude
-23.71014°
Altitude
524.321 km
Speed
7.603 km/s
True Right ascension
14h 15m 32s
True Declination
0° 00' 00"
Sunlit
Object was in daylight at epoch
Visualization orbit readout
Latitude
Unknown
Longitude
Unknown
Altitude
Unknown
Speed
Unknown
Apparent Right ascension
Unknown
Apparent Declination
Unknown
Sunlit
N/A
Visualization observer readout
Local Sidereal Time
02:07:00
Azimuth
Unknown
Elevation
Unknown
Doppler factor
Unknown
Orbital elements
Apogee altitude
529.771 km
Perigee altitude
514.106 km
Semi-major axis
6,900.075 km
Eccentricity
0.00114
Inclination
97.5487°
RAAN
213.8854°
Arg. of periapsis
61.8865°
True anomaly
298.23665°
Mean anomaly
298.3512°
Eccentric anomaly
298.29393°
Mean motion
3.78671 °/min
Orbital period
95.07 mins
BSTAR
0.00058198
Loading maneuver chart data...
Computing Atmospheric mass density...
Loading historical data...
Loading historical data...
Loading historical data...
Loading historical data...
Loading historical data...
Loading historical data...
Loading historical data...

Documentation

Showing up to 5 results
|